Flag for USA

Past Weather in Old Washington Historic State Park, Arkansas, USA — Yesterday and Last 2 Weeks

Now
56 °F

Light rain. Fog.


Feels Like: 55 °F
Forecast: 67 / 50 °F
Wind: 6 mph from Southeast

Location: Texarkana Regional-Webb Field

Current Time: Feb 23, 2019 at 1:13:58 am

Latest Report: Feb 23, 2019 at 12:32 am


Visibility: 3 mi

Pressure: 29.88 "Hg

Humidity: 100%

Dew Point: 56 °F

Location of Old Washington Historic State ParkLocation

Past Weather in Old Washington Historic State Park — Graph

°F

Old Washington Historic State Park Temperature Yesterday

Maximum temperature yesterday: 56 °F (at 10:53 pm)
Minimum temperature yesterday: 43 °F (at 2:09 am)
Average temperature yesterday: 51 °F

High & Low Weather Summary for the Past Weeks

 TemperatureHumidityPressure
High72 °F (Feb 14, 2:53 pm)100% (Feb 9, 11:53 pm)30.69 "Hg (Feb 9, 11:53 pm)
Low24 °F (Feb 8, 6:02 am)23% (Feb 13, 1:53 pm)29.66 "Hg (Feb 15, 1:53 pm)
Average45 °F83%30.05 "Hg
* Reported Feb 7 11:53 pm — Feb 22 11:53 pm, Old Washington Historic State Park. Weather by CustomWeather, © 2019

Note: Actual official high and low records may vary slightly from our data, if they occured in-between our weather recording intervals... More about our weather records

Advertising

Old Washington Historic State Park Weather History for the Previous 24 Hours

Scroll right to see more
 ConditionsComfort  
Time TempWeatherWind HumidityBarometerVisibility
11:53 pm
Fri, Feb 22
56 °FFog.5 mph100%29.88 "Hg2 mi
10:53 pm56 °FLow clouds.5 mph100%29.90 "Hg8 mi
9:53 pm55 °FFog.5 mph100%29.92 "Hg4 mi
9:41 pm55 °FFog.6 mph100%29.92 "Hg2 mi
9:29 pm55 °FLight rain. Fog.5 mph100%29.93 "Hg2 mi
8:53 pm54 °FLight rain. Fog.6 mph100%29.93 "Hg2 mi
8:39 pm54 °FLight rain. Fog.3 mph100%29.93 "Hg2 mi
8:16 pm54 °FLight rain. Fog.13 mph100%29.93 "Hg4 mi
7:53 pm54 °FLight rain. Fog.7 mph100%29.93 "Hg4 mi
7:36 pm54 °FLight rain. Fog.5 mph100%29.94 "Hg2 mi
7:14 pm54 °FLight rain. Mostly cloudy.6 mph100%29.94 "Hg7 mi
6:53 pm54 °FThundershowers. Fog.3 mph100%29.95 "Hg6 mi
5:53 pm54 °FLight rain. Fog.5 mph100%29.94 "Hg4 mi
5:19 pm54 °FRain. Fog.5 mph100%29.95 "Hg2 mi
5:12 pm54 °FLight rain. Fog.7 mph100%29.95 "Hg3 mi
4:53 pm54 °FRain. Fog.6 mph100%29.94 "Hg2 mi
4:18 pm54 °FLight rain. Fog.6 mph100%29.95 "Hg3 mi
3:08 pm54 °FThundershowers. Fog.7 mph100%29.96 "Hg5 mi
2:53 pm54 °FRain. Low clouds.7 mph97%29.99 "Hg8 mi
1:53 pm54 °FLight rain. Low clouds.5 mph97%30.00 "Hg10 mi
12:53 pm53 °FLow clouds.5 mph96%30.03 "Hg10 mi
10:53 am49 °FLow clouds.10 mph97%30.06 "Hg10 mi
9:53 am48 °FLow clouds.6 mph96%30.08 "Hg10 mi
8:53 am47 °FLow clouds.7 mph97%30.07 "Hg10 mi
7:53 am46 °FLow clouds.5 mph96%30.07 "Hg10 mi
6:53 am45 °FLow clouds.6 mph100%30.05 "Hg10 mi
6:09 am45 °FMostly cloudy.5 mph100%30.04 "Hg10 mi
5:53 am45 °FLow clouds.7 mph97%30.03 "Hg10 mi
5:42 am45 °FLow clouds.6 mph97%30.03 "Hg9 mi
4:53 am44 °FFog.5 mph100%30.02 "Hg4 mi
3:53 am45 °FLow clouds.6 mph97%30.06 "Hg10 mi
2:53 am44 °FMostly cloudy.10 mph96%30.02 "Hg8 mi
2:19 am44 °FMostly cloudy.7 mph96%30.05 "Hg9 mi
2:09 am43 °FMostly cloudy.6 mph100%30.05 "Hg9 mi
1:23 am44 °FLight rain. Fog.7 mph96%30.06 "Hg6 mi
Weather by CustomWeather, © 2019

See weather overview